Regional Weather Roundup
Issued by NWS

Home | Current Version | Previous Version | Text Only | Print | Product List | Glossary Off
Versions: 1 2 3 4 5 6 7 8 9 10 11 12 13 14 15 16 17 18 19 20 21 22 23 24 25 26 27 28 29 30 31 32 33 34 35 36 37 38 39 40 41 42 43 44 45 46 47 48 49 50

790
ASUS43 KDMX 011808
RWRIA

WEATHER ROUNDUP FOR IOWA
NATIONAL WEATHER SERVICE DES MOINES IA
100 PM CDT SUN MAY 01 2016

NOTE: "FAIR" INDICATES FEW OR NO CLOUDS BELOW 12,000 FEET WITH NO
SIGNIFICANT WEATHER AND/OR OBSTRUCTIONS TO VISIBILITY.

* - THESE STATIONS ARE NOT NWS STATIONS...THUS NOT UNDER NWS
QUALITY CONTROL.  THEY ALSO DO NOT REPORT WEATHER SUCH
AS PRECIPITATION OR FOG.

IAZ001>003-012>014-020>022-031>034-043>046-011900-
   NORTHWEST IOWA

CITY           SKY/WX    TMP DP  RH WIND       PRES   REMARKS
CARROLL *      PTSUNNY   45  45 100 NE14      30.08R FOG
CHEROKEE *     LGT RAIN  46  44  92 N15       30.13S
DENISON *      LGT RAIN  45  43  93 N15G21    30.09R
LE MARS *      PTSUNNY   48  41  76 N14G21    30.16F
ORANGE CITY *  MOSUNNY   46  41  81 N12       30.15S
SHELDON *      PTSUNNY   48  43  81 N14G24    30.14S
SIOUX CITY     LGT RAIN  47  42  83 N15       30.16S
6HR MIN TEMP:  44; 6HR MAX TEMP:  47; 6HR PCP:  0.22;

SPENCER        CLOUDY    49  41  74 N15       30.13F
6HR MIN TEMP:  42; 6HR MAX TEMP:  49; 6HR PCP:  0.01;

STORM LAKE *   LGT RAIN  43  41  93 N17       30.11S
$$

IAZ055>058-069>071-079>083-090>094-011900-
   SOUTHWEST IOWA

CITY           SKY/WX    TMP DP  RH WIND       PRES   REMARKS
ATLANTIC *     PTSUNNY   46  43  87 NE14      30.07S FOG
AUDUBON *      RAIN      45  43  93 N13G18    30.08S
CLARINDA *       N/A    N/A N/A N/A MISG        N/A
COUNCIL BLFS * LGT RAIN  45  45 100 N14G20    30.09R
CRESTON *      LGT RAIN  46  45  93 N13       30.04S
HARLAN  *      LGT RAIN  45  43  93 NE13G18   30.12R
LAMONI         LGT RAIN  48  46  93 N10       30.00S
6HR MIN TEMP:  45; 6HR MAX TEMP:  49; 6HR PCP:  0.31;

RED OAK *      DRIZZLE   46  45  93 N13       30.07R
SHENANDOAH *   PTSUNNY   48  48 100 N9        30.07R FOG
$$

IAZ047>049-059>061-072>074-084-011900-
   CENTRAL IOWA

CITY           SKY/WX    TMP DP  RH WIND       PRES   REMARKS
AMES           LGT RAIN  46  43  89 NE7       30.05R
6HR MIN TEMP:  44; 6HR MAX TEMP:  46; 6HR PCP:  0.04;

ANKENY *       PTSUNNY   45  45 100 NE8       30.05R FOG
BOONE *        LGT RAIN  45  45 100 NE12      30.05R
CHARITON *     RAIN      46  46 100 N10       30.01S
DES MOINES     LGT RAIN  47  44  90 NE9       30.05R FOG
6HR MIN TEMP:  46; 6HR MAX TEMP:  47; 6HR PCP:  0.03;

GRINNELL*      RAIN      45  45 100 NE8       30.02R
KNOXVILLE *    CLOUDY    46  45  93 N8        30.01R
MARSHALLTOWN   CLOUDY    46  43  89 NE12      30.03R
6HR MIN TEMP:  43; 6HR MAX TEMP:  46;

NEWTON *       CLOUDY    46  46 100 NE8G14    30.02S FOG
PELLA *        RAIN      46  46  97 NE5       30.03R
$$

IAZ004>006-015-016-023>025-035-036-011900-
   NORTH CENTRAL IOWA

CITY           SKY/WX    TMP DP  RH WIND       PRES   REMARKS
ALGONA *       CLOUDY    46  43  87 NE16      30.10F
CLARION *      LGT RAIN  45  45 100 NE17      30.08S
ESTHERVILLE    CLOUDY    49  42  77 N13       30.12F
6HR MIN TEMP:  40; 6HR MAX TEMP:  49; 6HR PCP:  0.01;

FORT DODGE *   CLOUDY    45  39  81 NE14      30.08S
MASON CITY     CLOUDY    48  42  80 NE13      30.10S
6HR MIN TEMP:  43; 6HR MAX TEMP:  48;

FOREST CITY *  DRIZZLE   46  39  76 NE9G17    30.09F
WEBSTER CITY * CLOUDY    46  45  93 NE10G20   30.05S
IOWA FALLS *   CLOUDY    46  45  93 NE13      30.06S
$$

IAZ007>011-017>019-026>030-037>042-050>054-066-011900-
   NORTHEAST IOWA

CITY           SKY/WX    TMP DP  RH WIND       PRES   REMARKS
CEDAR RAPIDS   LGT RAIN  47  47 100 NE9       30.01R FOG
6HR MIN TEMP:  45; 6HR MAX TEMP:  47; 6HR PCP: TRACE;

CHARLES CITY * CLOUDY    50  43  76 NE10G16   30.06F
CLINTON *      CLOUDY    49  46  90 NE14      30.01R
DECORAH *      CLOUDY    50  41  71 VRB7G14   30.05S
DUBUQUE        CLOUDY    48  43  82 NE18      30.01S
6HR MIN TEMP:  42; 6HR MAX TEMP:  49;

MONTICELLO *   CLOUDY    48  45  87 NE9       30.01S
OELWEIN *      CLOUDY    48  45  87 NE9       30.04S
$$

IAZ064-065-067-068-078-011900-
   EAST CENTRAL IOWA

CITY           SKY/WX    TMP DP  RH WIND       PRES   REMARKS
DAVENPORT      CLOUDY    49  46  90 NE14      29.99F
6HR MIN TEMP:  46; 6HR MAX TEMP:  49;

IOWA CITY      CLOUDY    48  44  86 NE10      30.02S
6HR MIN TEMP:  46; 6HR MAX TEMP:  48;

MT. PLEASANT * CLOUDY    52  52 100 NE8       29.98F
MUSCATINE *    CLOUDY    50  46  87 NE9       30.00S
$$

IAZ062-063-075>077-085>089-095>099-011900-
   SOUTHEAST IOWA

CITY           SKY/WX    TMP DP  RH WIND       PRES   REMARKS
BURLINGTON     CLOUDY    51  49  92 NE8       29.97S
6HR MIN TEMP:  47; 6HR MAX TEMP:  51;

FAIRFIELD *    FOG       48  48 100 NE7       29.99S VSB 1
FORT MADISON * CLOUDY    52  48  87 NE3       29.97F
KEOKUK *       CLOUDY    54  50  87 N3        29.96F
OSKALOOSA *    CLOUDY    46  45  98 NE12      30.01R FOG
OTTUMWA        CLOUDY    47  46  97 NE8       29.99F FOG
6HR MIN TEMP:  45; 6HR MAX TEMP:  48;

WASHINGTON *   CLOUDY    48  48 100 NE12      30.00F FOG
$$

ABBREVIATIONS USED IN REMARKS
   TC - TEMPERATURES IN CELSIUS
  WCI - WIND CHILL INDEX
   HX - HEAT INDEX
  VSB - VISIBILITY
$$





USA.gov is the U.S. government's official web portal to all federal, state and local government web resources and services.